STARLINK-37037, 68084

Orbit data source: Space-Track

STARLINK-37037, 68084 is a payload satellite owned by SpaceX/Seattle (US) in LEO that was launched on Wed, 04 Mar 2026 UTC via an FALCON 9 launch vehicle from the Air Force Eastern Test Range (AFETR). Payload-class satellites include a variety of spacecraft equipped with specific instruments for various scientific and technological missions. These include communications satellites like Starlink; space stations such as the ISS; scientific satellites like the Hubble; Earth observation satellites from companies like Planet Labs, Umbra, and HawkEye 360; GPS; miniature CubeSats for education and research; and military/defense satellites.

Loading next visibility...
Identifier
68084, 2026-042R
Orbit
LEO
Country
Flag of USUS
Related business
Manufacturer
SpaceX/Seattle
Mission
Operational Commercial Communications
Bus & Motor
STARLINK V2MO, Unknown motor
Mass
575 kg wet, ~530 kg dry
Launch date (UTC)
2026-03-04 (2 months ago)
Launch vehicle
FALCON 9
Launch site
Air Force Eastern Test Range (AFETR)
Object type
Payload
Rocket body
Debris
Shape & HBR
Box + 2 Pan, 17.7 m
Radar Cross Section
36.964 m²

Expand to show TLE details & history
Last TLE update: 8 hours ago

TLE from 8 hours ago
0 STARLINK-37037
1 68084U 26042R   26119.25003472 -.02920953  00000-0 -85972-1 0  9996
2 68084  53.1596 303.8603 0002409  76.9024  19.2724 15.38384794  5959
Epoch: 2026-04-29T06:00Z
TLE epoch observation values (Epoch: 2026-04-29T06:00:02.999Z)
Latitude
52.86931°
Longitude
96.88894°
Altitude
455.802 km
Speed
7.646 km/s
True Right ascension
02h 56m 27s
True Declination
52° 41' 47"
Sunlit
Object was in daylight at epoch
Visualization orbit readout
Latitude
Unknown
Longitude
Unknown
Altitude
Unknown
Speed
Unknown
Apparent Right ascension
Unknown
Apparent Declination
Unknown
Sunlit
N/A
Visualization observer readout
Local Sidereal Time
21:51:52
Azimuth
Unknown
Elevation
Unknown
Doppler factor
Unknown
Orbital elements
Apogee altitude
452.788 km
Perigee altitude
449.497 km
Semi-major axis
6,829.28 km
Eccentricity
0.00024
Inclination
53.1596°
RAAN
303.8603°
Arg. of periapsis
76.9024°
True anomaly
19.28151°
Mean anomaly
19.2724°
Eccentric anomaly
19.27696°
Mean motion
3.84575 °/min
Orbital period
93.61 mins
BSTAR
-0.085972
Loading maneuver chart data...
Computing Atmospheric mass density...
Loading historical data...
Loading historical data...
Loading historical data...
Loading historical data...
Loading historical data...
Loading historical data...
Loading historical data...

Documentation

Showing up to 5 results
|